.
WxDataArchive / Data Records for 2014-12-31
2014-12-30 December 2014 2015-01-01

Data Records for Wednesday, 31 December 2014

Time	Temp	Chill	HIndex	Humid	Dewpt	 Wind 	HiWind	WindDir	Rain 	Barom
-----	----	-----	------	-----	-----	------	------	-------	-----	-----
00:00	15.4	15.4	15.4	68	6.8	0	1	292	0.00	30.580 
00:05	15.6	15.6	15.6	67	6.6	0	1	292	0.00	30.580 
00:10	15.4	15.4	15.4	67	6.4	0	1	292	0.00	30.580 
00:15	15.4	15.4	15.4	66	6.1	0	1	292	0.00	30.569 
00:20	15.4	15.4	15.4	65	5.8	0	2	292	0.00	30.569 
00:25	15.4	15.4	15.4	65	5.8	0	1	292	0.00	30.569 
00:30	15.2	15.2	15.2	65	5.6	0	1	292	0.00	30.567 
00:35	15.2	15.2	15.2	64	5.2	0	1	292	0.00	30.567 
00:40	15.2	15.2	15.2	64	5.2	0	1	292	0.00	30.567 
00:45	15.1	15.1	15.1	63	4.8	0	1	292	0.00	30.562 
00:50	15.1	15.1	15.1	63	4.8	0	2	292	0.00	30.562 
00:55	15.1	15.1	15.1	63	4.8	0	2	292	0.00	30.562 
01:00	15.1	15.1	15.1	63	4.8	0	1	292	0.00	30.565 
01:05	15.1	15.1	15.1	63	4.8	0	1	292	0.00	30.565 
01:10	15.1	15.1	15.1	62	4.5	0	3	292	0.00	30.565 
01:15	15.1	15.1	15.1	62	4.5	0	1	292	0.00	30.559 
01:20	14.9	14.9	14.9	62	4.3	0	2	292	0.00	30.559 
01:25	14.9	14.9	14.9	62	4.3	0	1	292	0.00	30.559 
01:30	14.9	14.9	14.9	62	4.3	0	1	292	0.00	30.553 
01:35	14.8	14.8	14.8	62	4.2	0	2	292	0.00	30.553 
01:40	14.8	14.8	14.8	62	4.2	0	2	292	0.00	30.553 
01:45	14.8	14.8	14.8	62	4.2	0	1	292	0.00	30.554 
01:50	14.6	14.6	14.6	62	4.0	0	2	292	0.00	30.554 
01:55	14.6	14.6	14.6	62	4.0	0	1	292	0.00	30.554 
02:00	14.6	14.6	14.6	62	4.0	0	1	292	0.00	30.555 
02:05	14.6	14.6	14.6	62	4.0	0	1	292	0.00	30.555 
02:10	14.4	14.4	14.4	62	3.8	0	2	292	0.00	30.555 
02:15	14.4	14.4	14.4	62	3.8	0	1	292	0.00	30.559 
02:20	14.4	14.4	14.4	62	3.8	0	2	292	0.00	30.559 
02:25	14.4	14.4	14.4	62	3.8	0	3	292	0.00	30.559 
02:30	14.4	14.4	14.4	62	3.8	0	1	292	0.00	30.563 
02:35	14.4	14.4	14.4	62	3.8	0	1	292	0.00	30.563 
02:40	14.4	14.4	14.4	62	3.8	0	2	292	0.00	30.563 
02:45	14.4	14.4	14.4	62	3.8	0	1	292	0.00	30.563 
02:50	14.4	14.4	14.4	62	3.8	0	1	292	0.00	30.563 
02:55	14.4	14.4	14.4	62	3.8	0	1	292	0.00	30.563 
03:00	14.3	14.3	14.3	62	3.7	0	1	292	0.00	30.564 
03:05	14.3	14.3	14.3	62	3.7	0	2	292	0.00	30.564 
03:10	14.3	14.3	14.3	61	3.3	0	2	292	0.00	30.564 
03:15	14.3	14.3	14.3	61	3.3	0	2	292	0.00	30.564 
03:20	14.3	14.3	14.3	61	3.3	0	1	292	0.00	30.564 
03:25	14.3	14.3	14.3	61	3.3	0	1	292	0.00	30.564 
03:30	14.1	14.1	14.1	61	3.2	0	1	292	0.00	30.558 
03:35	14.1	14.1	14.1	61	3.2	0	2	292	0.00	30.558 
03:40	14.1	14.1	14.1	61	3.2	0	2	292	0.00	30.558 
03:45	14.0	14.0	14.0	61	3.1	0	1	292	0.00	30.549 
03:50	14.0	14.0	14.0	61	3.1	0	2	292	0.00	30.549 
03:55	14.0	14.0	14.0	61	3.1	0	2	292	0.00	30.549 
04:00	14.0	14.0	14.0	61	3.1	0	2	292	0.00	30.545 
04:05	13.8	13.8	13.8	61	2.9	0	2	292	0.00	30.545 
04:10	13.8	13.8	13.8	61	2.9	0	1	292	0.00	30.545 
04:15	13.8	13.8	13.8	61	2.9	0	1	292	0.00	30.541 
04:20	13.6	13.6	13.6	61	2.7	0	0	---	0.00	30.541 
04:25	13.6	13.6	13.6	62	3.0	0	1	292	0.00	30.541 
04:30	13.5	13.5	13.5	62	2.9	0	2	292	0.00	30.540 
04:35	13.5	13.5	13.5	62	2.9	0	1	292	0.00	30.540 
04:40	13.5	13.5	13.5	62	2.9	0	2	292	0.00	30.540 
04:45	13.3	13.3	13.3	62	2.7	0	2	292	0.00	30.541 
04:50	13.3	13.3	13.3	62	2.7	0	1	292	0.00	30.541 
04:55	13.3	13.3	13.3	62	2.7	0	2	292	0.00	30.541 
05:00	13.3	13.3	13.3	63	3.1	0	3	292	0.00	30.540 
05:05	13.1	13.1	13.1	62	2.6	0	2	270	0.00	30.540 
05:10	13.1	13.1	13.1	63	2.9	0	2	270	0.00	30.540 
05:15	12.9	12.9	12.9	63	2.7	0	1	270	0.00	30.541 
05:20	12.9	12.9	12.9	63	2.7	0	2	270	0.00	30.541 
05:25	12.8	12.8	12.8	63	2.6	0	3	270	0.00	30.541 
05:30	12.8	12.8	12.8	63	2.6	0	1	270	0.00	30.541 
05:35	12.6	12.6	12.6	64	2.8	0	1	270	0.00	30.541 
05:40	12.6	12.6	12.6	64	2.8	0	1	270	0.00	30.541 
05:45	12.4	12.4	12.4	64	2.6	0	2	270	0.00	30.542 
05:50	12.4	12.4	12.4	65	2.9	0	2	270	0.00	30.542 
05:55	12.3	12.3	12.3	65	2.8	0	1	270	0.00	30.542 
06:00	12.3	12.3	12.3	65	2.8	0	2	270	0.00	30.536 
06:05	12.1	12.1	12.1	65	2.6	0	1	270	0.00	30.536 
06:10	12.1	12.1	12.1	65	2.6	0	1	270	0.00	30.536 
06:15	11.9	11.9	11.9	65	2.4	0	1	270	0.00	30.539 
06:20	11.9	11.9	11.9	65	2.4	0	1	270	0.00	30.539 
06:25	11.7	11.7	11.7	66	2.6	0	1	270	0.00	30.539 
06:30	11.7	11.7	11.7	66	2.6	0	2	270	0.00	30.541 
06:35	11.7	11.7	11.7	66	2.6	0	1	270	0.00	30.541 
06:40	11.6	11.6	11.6	66	2.5	0	4	270	0.00	30.541 
06:45	11.6	11.6	11.6	66	2.5	0	1	270	0.00	30.537 
06:50	11.6	11.6	11.6	66	2.5	0	1	270	0.00	30.537 
06:55	11.4	11.4	11.4	66	2.3	0	2	270	0.00	30.537 
07:00	11.2	11.2	11.2	66	2.1	0	1	270	0.00	30.538 
07:05	11.2	11.2	11.2	66	2.1	0	0	---	0.00	30.538 
07:10	11.1	11.1	11.1	66	2.0	0	1	270	0.00	30.538 
07:15	11.1	11.1	11.1	67	2.3	0	3	270	0.00	30.543 
07:20	11.1	11.1	11.1	66	2.0	0	2	270	0.00	30.543 
07:25	11.1	11.1	11.1	66	2.0	0	3	270	0.00	30.543 
07:30	11.1	11.1	11.1	66	2.0	0	2	270	0.00	30.543 
07:35	10.9	10.9	10.9	66	1.8	0	2	270	0.00	30.543 
07:40	10.9	10.9	10.9	66	1.8	0	2	270	0.00	30.543 
07:45	10.9	10.9	10.9	67	2.1	0	2	270	0.00	30.541 
07:50	10.7	10.7	10.7	66	1.6	0	2	270	0.00	30.541 
07:55	10.7	10.7	10.7	66	1.6	0	1	270	0.00	30.541 
08:00	10.7	10.7	10.7	66	1.6	0	2	270	0.00	30.536 
08:05	10.5	10.5	10.5	66	1.4	0	2	270	0.00	30.536 
08:10	10.5	10.5	10.5	66	1.4	0	2	270	0.00	30.536 
08:15	10.5	10.5	10.5	66	1.4	0	2	270	0.00	30.534 
08:20	10.5	10.5	10.5	66	1.4	0	2	270	0.00	30.534 
08:25	10.5	10.5	10.5	66	1.4	0	2	270	0.00	30.534 
08:30	10.5	10.5	10.5	66	1.4	0	2	270	0.00	30.533 
08:35	10.5	10.5	10.5	66	1.4	0	2	270	0.00	30.533 
08:40	10.7	10.7	10.7	66	1.6	0	2	270	0.00	30.533 
08:45	10.7	10.7	10.7	66	1.6	0	2	270	0.00	30.533 
08:50	10.7	10.7	10.7	65	1.3	0	2	270	0.00	30.533 
08:55	10.9	10.9	10.9	65	1.5	0	1	270	0.00	30.533 
09:00	11.1	11.1	11.1	65	1.7	0	2	270	0.00	30.533 
09:05	11.1	11.1	11.1	65	1.7	0	3	270	0.00	30.533 
09:10	11.2	11.2	11.2	64	1.4	0	2	270	0.00	30.533 
09:15	11.4	11.4	11.4	63	1.3	1	4	270	0.00	30.532 
09:20	11.4	11.4	11.4	63	1.3	0	2	270	0.00	30.532 
09:25	11.6	11.6	11.6	62	1.1	1	3	270	0.00	30.532 
09:30	11.7	11.7	11.7	61	0.9	1	4	248	0.00	30.533 
09:35	11.9	11.9	11.9	62	1.4	0	2	248	0.00	30.533 
09:40	12.1	12.1	12.1	61	1.3	0	3	248	0.00	30.533 
09:45	12.3	12.3	12.3	60	1.1	0	2	248	0.00	30.531 
09:50	12.6	12.6	12.6	59	1.0	1	2	248	0.00	30.531 
09:55	12.8	12.8	12.8	58	0.8	1	3	248	0.00	30.531 
10:00	12.8	12.8	12.8	57	0.5	1	3	248	0.00	30.529 
10:05	12.9	12.9	12.9	56	0.2	1	4	248	0.00	30.529 
10:10	13.1	13.1	13.1	55	0.0	1	4	248	0.00	30.529 
10:15	13.3	13.3	13.3	54	-0.2	1	3	248	0.00	30.524 
10:20	13.5	13.5	13.5	54	-0.0	1	4	248	0.00	30.524 
10:25	13.5	13.5	13.5	53	-0.4	1	3	248	0.00	30.524 
10:30	13.6	13.6	13.6	50	-1.5	1	7	248	0.00	30.520 
10:35	14.0	14.0	14.0	49	-1.6	1	3	248	0.00	30.520 
10:40	14.1	14.1	14.1	46	-2.8	1	3	248	0.00	30.520 
10:45	14.4	14.4	14.4	46	-2.6	1	4	248	0.00	30.522 
10:50	14.6	14.6	14.6	45	-2.8	1	5	248	0.00	30.522 
10:55	14.9	14.9	14.9	45	-2.6	1	3	248	0.00	30.522 
11:00	15.1	15.1	15.1	44	-2.8	1	3	248	0.00	30.517 
11:05	15.2	15.2	15.2	44	-2.8	1	5	248	0.00	30.517 
11:10	15.2	15.2	15.2	42	-3.7	2	3	248	0.00	30.517 
11:15	15.4	15.4	15.4	43	-3.1	1	4	248	0.00	30.513 
11:20	15.4	15.4	15.4	43	-3.1	2	5	248	0.00	30.513 
11:25	15.6	15.6	15.6	43	-2.9	1	3	270	0.00	30.513 
11:30	15.9	15.9	15.9	43	-2.6	1	5	270	0.00	30.503 
11:35	16.1	16.1	16.1	42	-2.9	1	4	270	0.00	30.503 
11:40	16.1	16.1	16.1	42	-2.9	1	3	248	0.00	30.503 
11:45	15.9	15.9	15.9	41	-3.6	2	5	248	0.00	30.498 
11:50	16.1	16.1	16.1	41	-3.4	1	4	248	0.00	30.498 
11:55	16.4	16.4	16.4	41	-3.1	1	5	248	0.00	30.498 
12:00	16.7	16.7	16.7	41	-2.9	1	3	248	0.00	30.483 
12:05	16.7	16.7	16.7	40	-3.4	2	6	270	0.00	30.483 
12:10	16.9	16.9	16.9	41	-2.7	2	5	248	0.00	30.483 
12:15	17.0	17.0	17.0	41	-2.6	2	6	248	0.00	30.474 
12:20	17.2	17.2	17.2	41	-2.4	2	4	248	0.00	30.474 
12:25	17.3	17.3	17.3	40	-2.8	1	4	248	0.00	30.474 
12:30	17.3	17.3	17.3	40	-2.8	2	7	248	0.00	30.466 
12:35	17.3	17.3	17.3	42	-1.8	2	4	270	0.00	30.466 
12:40	17.5	17.5	17.5	43	-1.1	2	5	270	0.00	30.466 
12:45	17.7	17.7	17.7	42	-1.4	2	5	248	0.00	30.450 
12:50	17.5	17.5	17.5	42	-1.6	3	6	248	0.00	30.450 
12:55	17.3	17.3	17.3	40	-2.8	3	9	248	0.00	30.450 
13:00	17.3	17.3	17.3	42	-1.8	3	10	248	0.00	30.441 
13:05	17.7	17.7	17.7	43	-1.0	2	6	248	0.00	30.441 
13:10	17.8	17.8	17.8	42	-1.4	2	6	248	0.00	30.441 
13:15	18.0	18.0	18.0	43	-0.7	2	6	270	0.00	30.432 
13:20	18.1	18.1	18.1	42	-1.1	3	6	248	0.00	30.432 
13:25	18.4	18.4	18.4	41	-1.3	2	5	248	0.00	30.432 
13:30	18.6	18.6	18.6	41	-1.1	2	7	248	0.00	30.423 
13:35	18.6	18.6	18.6	40	-1.7	2	5	248	0.00	30.423 
13:40	18.6	18.6	18.6	39	-2.2	3	9	248	0.00	30.423 
13:45	18.6	18.6	18.6	39	-2.2	2	7	248	0.00	30.411 
13:50	18.6	18.6	18.6	40	-1.7	3	6	248	0.00	30.411 
13:55	19.1	19.1	19.1	39	-1.7	2	6	270	0.00	30.411 
14:00	19.2	19.2	19.2	39	-1.6	2	6	270	0.00	30.400 
14:05	19.5	19.5	19.5	41	-0.3	1	6	292	0.00	30.400 
14:10	19.9	19.9	19.9	41	0.0	1	5	248	0.00	30.400 
14:15	20.0	20.0	20.0	40	-0.4	2	8	248	0.00	30.396 
14:20	19.9	19.9	19.9	39	-1.0	2	5	292	0.00	30.396 
14:25	19.9	19.9	19.9	39	-1.0	2	7	248	0.00	30.396 
14:30	19.9	19.9	19.9	39	-1.0	2	6	248	0.00	30.386 
14:35	20.0	20.0	20.0	39	-0.9	2	11	270	0.00	30.386 
14:40	20.2	20.2	20.2	38	-1.3	2	5	270	0.00	30.386 
14:45	20.2	20.2	20.2	39	-0.7	1	4	248	0.00	30.382 
14:50	20.5	20.5	20.5	38	-1.0	2	6	248	0.00	30.382 
14:55	20.5	20.5	20.5	37	-1.6	2	6	248	0.00	30.382 
15:00	20.3	20.3	20.3	38	-1.2	2	6	248	0.00	30.374 
15:05	20.3	20.3	20.3	38	-1.2	3	7	248	0.00	30.374 
15:10	20.0	20.0	20.0	38	-1.5	3	9	248	0.00	30.374 
15:15	20.2	20.2	20.2	39	-0.7	2	7	248	0.00	30.366 
15:20	20.3	20.3	20.3	39	-0.7	2	5	248	0.00	30.366 
15:25	20.2	20.2	20.2	38	-1.3	2	6	248	0.00	30.366 
15:30	20.2	20.2	20.2	38	-1.3	2	6	248	0.00	30.362 
15:35	20.5	20.5	20.5	39	-0.5	2	5	248	0.00	30.362 
15:40	20.5	20.5	20.5	39	-0.5	2	6	248	0.00	30.362 
15:45	20.5	20.5	20.5	41	0.6	2	9	248	0.00	30.358 
15:50	20.2	20.2	20.2	39	-0.7	3	9	270	0.00	30.358 
15:55	19.9	14.1	19.9	38	-1.6	4	7	270	0.00	30.358 
16:00	19.7	19.7	19.7	39	-1.2	2	5	270	0.00	30.363 
16:05	19.7	19.7	19.7	40	-0.7	2	7	248	0.00	30.363 
16:10	19.7	19.7	19.7	41	-0.1	2	6	248	0.00	30.363 
16:15	19.5	19.5	19.5	42	0.2	2	4	270	0.00	30.360 
16:20	19.5	19.5	19.5	43	0.7	2	6	270	0.00	30.360 
16:25	19.5	19.5	19.5	43	0.7	2	9	248	0.00	30.360 
16:30	19.4	19.4	19.4	43	0.6	1	6	248	0.00	30.353 
16:35	19.2	19.2	19.2	44	0.9	3	6	248	0.00	30.353 
16:40	19.1	19.1	19.1	43	0.3	3	7	248	0.00	30.353 
16:45	18.9	18.9	18.9	44	0.6	2	6	248	0.00	30.349 
16:50	18.8	18.8	18.8	45	1.0	2	7	248	0.00	30.349 
16:55	18.6	18.6	18.6	45	0.8	3	9	248	0.00	30.349 
17:00	18.6	18.6	18.6	45	0.8	2	10	248	0.00	30.347 
17:05	18.4	18.4	18.4	45	0.6	2	6	270	0.00	30.347 
17:10	18.4	18.4	18.4	46	1.1	2	6	248	0.00	30.347 
17:15	18.3	18.3	18.3	46	1.0	2	5	248	0.00	30.341 
17:20	18.1	18.1	18.1	47	1.3	2	10	248	0.00	30.341 
17:25	18.1	18.1	18.1	47	1.3	1	6	270	0.00	30.341 
17:30	18.0	18.0	18.0	48	1.7	2	6	248	0.00	30.337 
17:35	18.0	18.0	18.0	48	1.7	2	7	248	0.00	30.337 
17:40	18.0	18.0	18.0	49	2.1	1	6	270	0.00	30.337 
17:45	18.0	18.0	18.0	50	2.5	1	6	248	0.00	30.327 
17:50	18.0	18.0	18.0	50	2.5	1	5	270	0.00	30.327 
17:55	18.0	18.0	18.0	50	2.5	1	7	248	0.00	30.327 
18:00	17.8	17.8	17.8	50	2.3	1	4	248	0.00	30.319 
18:05	17.8	17.8	17.8	51	2.8	1	5	270	0.00	30.319 
18:10	17.8	17.8	17.8	51	2.8	1	4	248	0.00	30.319 
18:15	17.8	17.8	17.8	51	2.8	1	5	248	0.00	30.311 
18:20	17.8	17.8	17.8	51	2.8	1	6	248	0.00	30.311 
18:25	17.8	17.8	17.8	51	2.8	2	5	248	0.00	30.311 
18:30	17.8	17.8	17.8	51	2.8	1	4	248	0.00	30.307 
18:35	17.8	17.8	17.8	51	2.8	1	5	248	0.00	30.307 
18:40	17.8	17.8	17.8	51	2.8	1	6	248	0.00	30.307 
18:45	17.8	17.8	17.8	51	2.8	1	4	248	0.00	30.298 
18:50	17.8	17.8	17.8	52	3.2	1	6	270	0.00	30.298 
18:55	17.8	17.8	17.8	52	3.2	1	5	270	0.00	30.298 
19:00	17.8	17.8	17.8	52	3.2	1	6	248	0.00	30.295 
19:05	17.8	17.8	17.8	51	2.8	1	5	248	0.00	30.295 
19:10	17.8	17.8	17.8	52	3.2	0	5	248	0.00	30.295 
19:15	17.8	17.8	17.8	52	3.2	1	4	248	0.00	30.292 
19:20	17.8	17.8	17.8	52	3.2	1	4	248	0.00	30.292 
19:25	17.8	17.8	17.8	52	3.2	1	5	248	0.00	30.292 
19:30	17.8	17.8	17.8	53	3.6	1	6	248	0.00	30.284 
19:35	17.8	17.8	17.8	54	4.0	1	6	248	0.00	30.284 
19:40	17.8	17.8	17.8	54	4.0	1	4	248	0.00	30.284 
19:45	17.8	17.8	17.8	55	4.4	1	4	248	0.00	30.280 
19:50	18.0	18.0	18.0	55	4.6	1	6	248	0.00	30.280 
19:55	18.0	18.0	18.0	55	4.6	1	7	248	0.00	30.280 
20:00	18.0	18.0	18.0	55	4.6	1	5	248	0.00	30.279 
20:05	18.0	18.0	18.0	55	4.6	2	6	248	0.00	30.279 
20:10	18.1	18.1	18.1	55	4.7	1	5	248	0.00	30.279 
20:15	18.1	18.1	18.1	55	4.7	1	5	248	0.00	30.279 
20:20	18.1	18.1	18.1	55	4.7	2	4	248	0.00	30.279 
20:25	18.3	18.3	18.3	55	4.9	3	7	248	0.00	30.279 
20:30	18.3	18.3	18.3	55	4.9	2	5	270	0.00	30.272 
20:35	18.3	18.3	18.3	56	5.3	1	5	248	0.00	30.272 
20:40	18.3	18.3	18.3	56	5.3	2	9	248	0.00	30.272 
20:45	18.4	18.4	18.4	56	5.4	2	5	248	0.00	30.270 
20:50	18.3	18.3	18.3	56	5.3	1	5	248	0.00	30.270 
20:55	18.3	18.3	18.3	56	5.3	2	9	248	0.00	30.270 
21:00	18.4	18.4	18.4	56	5.4	2	10	248	0.00	30.266 
21:05	18.4	18.4	18.4	56	5.4	3	5	270	0.00	30.266 
21:10	18.4	18.4	18.4	56	5.4	3	9	248	0.00	30.266 
21:15	18.4	18.4	18.4	56	5.4	2	5	248	0.00	30.259 
21:20	18.4	18.4	18.4	56	5.4	2	10	248	0.00	30.259 
21:25	18.4	18.4	18.4	55	5.0	2	6	248	0.00	30.259 
21:30	18.4	18.4	18.4	55	5.0	2	9	248	0.00	30.246 
21:35	18.6	18.6	18.6	55	5.2	3	10	248	0.00	30.246 
21:40	18.6	18.6	18.6	54	4.8	2	6	248	0.00	30.246 
21:45	18.6	18.6	18.6	54	4.8	2	6	248	0.00	30.244 
21:50	18.8	18.8	18.8	54	4.9	3	7	248	0.00	30.244 
21:55	18.8	18.8	18.8	54	4.9	2	5	270	0.00	30.244 
22:00	18.8	18.8	18.8	55	5.3	2	7	248	0.00	30.236 
22:05	18.8	18.8	18.8	55	5.3	2	9	248	0.00	30.236 
22:10	18.8	18.8	18.8	55	5.3	3	9	248	0.00	30.236 
22:15	18.8	18.8	18.8	55	5.3	3	11	248	0.00	30.231 
22:20	18.8	18.8	18.8	56	5.7	2	6	248	0.00	30.231 
22:25	18.8	18.8	18.8	56	5.7	2	6	248	0.00	30.231 
22:30	18.8	18.8	18.8	56	5.7	2	9	248	0.00	30.230 
22:35	18.8	18.8	18.8	56	5.7	3	7	248	0.00	30.230 
22:40	18.9	18.9	18.9	56	5.8	3	6	270	0.00	30.230 
22:45	18.9	18.9	18.9	56	5.8	2	7	248	0.00	30.227 
22:50	18.8	18.8	18.8	57	6.1	2	6	248	0.00	30.227 
22:55	18.9	18.9	18.9	57	6.2	3	9	270	0.00	30.227 
23:00	18.8	18.8	18.8	57	6.1	2	7	270	0.00	30.225 
23:05	18.9	18.9	18.9	57	6.2	3	9	248	0.00	30.225 
23:10	18.9	18.9	18.9	57	6.2	2	6	248	0.00	30.225 
23:15	18.9	18.9	18.9	57	6.2	2	7	248	0.00	30.220 
23:20	18.9	18.9	18.9	57	6.2	2	5	248	0.00	30.220 
23:25	18.9	18.9	18.9	57	6.2	2	5	248	0.00	30.220 
23:30	18.9	18.9	18.9	57	6.2	3	8	248	0.00	30.216 
23:35	18.9	18.9	18.9	57	6.2	3	9	270	0.00	30.216 
23:40	18.9	18.9	18.9	57	6.2	2	5	248	0.00	30.216 
23:45	18.9	18.9	18.9	57	6.2	3	11	270	0.00	30.212 
23:50	18.9	18.9	18.9	57	6.2	3	7	270	0.00	30.212 
23:55	18.8	18.8	18.8	57	6.1	3	6	248	0.00	30.212 

CoCoRaHS
IN-AL-39
A2 Web Hosting
Creative Commons License
GoDaddy
search engine by freefind advanced

loaded 2018-11-15 05:11:30 • last modified 2010-11-18 10:43:29
Privacy PolicyDisclaimer
• wx.awcolley.com is powered by PmWiki v.2002016 •
• all content (unless otherwise noted) © 2018 A W Colley